CAPE
28 233 312 357 25 0 14 182 324 351 195 29 108 324 410 350 296 313 284 361 396 648 614 1271 1048 1149 919 1008 1086 958 983 1129 1074 989 1002 942 787 865 1023 739 939 1040 1328
520 638 388 29 66 20 200 177 440 404 34 0 13 109 227 342 422 381 299 261 407 637 629 916 954 1354 1030 935 1374 1072 1105 923 1048 1039 829 757 781 911 1035 988 1089 1141 920
650 282 259 0 39 187 154 71 186 210 387 155 112 178 174 244 298 368 331 237 29 232 1053 948 807 955 1227 882 647 666 751 864 878 1119 1055 875 1039 965 720 948 1080 966 837
421 96 436 260 393 456 357 36 178 304 248 181 41 39 62 111 226 273 288 164 39 66 723 1008 989 1159 1190 1201 1042 746 760 670 932 945 786 786 850 933 995 864 851 824 747
332 318 255 367 181 230 26 94 318 230 167 244 125 26 16 2 58 313 220 150 48 164 213 577 828 975 988 858 956 989 639 553 632 574 551 563 702 696 698 762 704 627 487
190 219 178 349 311 325 0 0 377 103 181 260 240 69 41 55 68 99 225 239 256 415 220 119 123 858 756 858 915 1123 744 476 374 417 370 403 325 532 552 500 457 389 341
149 224 143 447 556 325 7 289 428 55 115 384 172 0 0 0 126 208 272 360 432 241 371 553 93 522 515 711 1127 1131 734 646 428 304 143 188 240 401 422 329 340 379 414
102 209 392 176 611 238 471 260 327 132 274 479 300 15 2 0 23 77 405 276 133 6 344 421 231 280 60 109 461 873 735 753 491 380 344 95 231 216 297 348 385 393 350
165 239 461 132 444 394 254 58 94 203 147 482 302 162 66 25 18 179 178 41 74 0 0 0 1 38 34 125 313 721 707 671 575 501 641 61 108 178 210 204 168 161 196
117 472 807 541 317 227 176 31 545 440 375 275 319 144 33 50 0 0 7 81 76 46 0 0 0 78 0 0 51 523 879 619 528 624 666 299 93 167 182 148 74 34 42
342 656 622 501 365 305 226 380 371 543 272 231 79 47 16 0 11 40 1 64 70 31 0 0 0 6 0 0 0 346 635 1022 428 434 518 640 216 184 262 206 106 106 87
306 443 802 561 620 435 399 296 647 748 608 466 216 261 107 0 27 20 17 22 62 107 9 13 0 0 60 9 0 0 48 192 772 372 589 586 526 333 480 522 504 327 240
156 185 493 690 783 860 755 623 665 786 664 519 133 272 135 193 83 32 32 98 152 90 92 263 470 474 310 107 0 118 200 109 23 469 408 561 684 480 409 613 672 543 447
96 32 43 372 333 807 954 852 824 720 640 597 308 712 458 274 295 180 297 449 76 54 14 85 590 564 516 389 175 446 720 278 110 382 690 366 549 615 463 488 643 540 253
63 34 27 119 459 620 812 1066 891 783 688 723 642 726 578 452 246 411 482 530 349 125 107 101 306 393 494 614 651 638 333 90 186 377 176 155 390 548 445 479 559 415 125
126 65 142 153 345 395 729 1089 1115 941 935 869 854 784 752 675 615 519 646 682 405 322 175 200 265 304 490 696 679 618 199 0 11 352 86 53 219 407 408 421 441 214 36
68 16 6 22 61 413 989 1118 1191 1115 956 781 952 783 650 743 748 636 430 627 576 430 448 413 360 442 565 563 589 798 724 661 151 242 245 101 109 262 352 303 234 60 0
231 127 517 512 508 677 716 979 920 915 854 813 597 801 636 552 470 606 534 543 600 534 591 434 477 552 702 649 704 790 702 822 577 571 390 276 114 145 219 156 93 3 0
235 213 520 748 584 555 567 645 805 789 985 1018 951 747 751 567 452 558 627 656 703 654 556 600 571 631 686 707 639 521 417 459 536 469 402 197 105 95 84 63 22 0 0
595 653 401 552 737 771 600 533 579 689 957 967 999 915 752 694 599 656 687 793 766 771 790 727 588 684 734 709 582 503 463 354 303 202 183 111 75 34 21 27 15 1 0
355 630 661 771 744 679 632 573 553 510 485 605 690 883 1065 1148 1068 960 708 802 1053 978 805 688 666 748 636 562 567 474 414 267 114 32 30 17 5 4 3 1 0 0 0
407 307 307 329 524 636 662 659 699 651 847 873 755 1092 776 789 725 538 740 925 1004 990 864 717 724 650 643 491 383 441 386 361 292 24 0 0 0 1 0 0 0 0 0
686 588 599 552 508 517 224 150 251 188 194 304 415 284 182 1 5 27 9 0 3 5 50 233 298 301 227 136 119 175 185 8 3 1 1 0 1 0 1 1 1 1 0
880 906 939 1041 833 358 403 91 0 0 0 5 0 0 0 0 0 0 0 0 0 0 0 0 0 0 0 0 2 16 17 24 9 8 2 0 1 0 1 1 1 0 0
1110 1217 1275 1361 1027 446 108 132 1 0 0 0 0 0 0 0 0 0 0 0 0 0 0 0 0 0 0 0 0 0 0 0 3 17 1 0 1 1 0 0 1 0 0
1515 1621 1706 1553 1311 944 294 68 0 0 0 0 0 0 0 0 0 0 0 0 0 0 0 0 0 0 0 0 0 0 0 0 0 2 6 0 1 0 0 2 0 0 0
CIN
-22 -75 -70 -82 -145 0 -61 -138 -133 -121 -153 -172 -160 -171 -138 -137 -141 -138 -152 -138 -137 -123 -92 -30 -11 -11 -10 -7 -0 -0 -1 0 -0 -0 -0 -0 -0 -0 0 -23 -11 -1 0
-57 -56 -73 -33 -92 -175 -107 -117 -96 -119 -89 0 -231 -152 -184 -180 -169 -138 -150 -167 -127 -99 -103 -46 -17 -13 -9 -13 -0 -2 -0 -4 -0 -0 -0 -7 -6 -1 -1 -0 0 0 -2
-53 -67 -67 0 -84 -96 -112 -135 -145 -169 -113 -125 -158 -193 -184 -201 -174 -156 -159 -163 -214 -157 -56 -54 -22 -15 -9 -14 -15 -10 -4 -7 -7 -0 -1 -1 0 -1 -5 -0 0 -1 -3
-55 -62 -44 -51 -61 -84 -90 -48 -99 -88 -113 -129 -120 -143 -173 -177 -168 -138 -167 -188 -237 -206 -96 -41 -15 -18 -14 -11 -12 -14 -10 -15 -13 -9 -9 -6 -0 -1 -0 -2 -3 -6 -10
-65 -52 -50 -59 -73 -69 -49 -87 -68 -73 -66 -70 -96 -163 -191 -65 -217 -177 -190 -193 -221 -179 -169 -85 -57 -52 -50 -42 -21 -11 -21 -28 -20 -30 -26 -21 -10 -8 -9 -9 -13 -15 -22
-62 -60 -50 -50 -49 -53 0 0 -63 -126 -82 -96 -87 -130 -222 -190 -215 -188 -153 -195 -198 -154 -158 -136 -156 -82 -79 -60 -41 -18 -28 -41 -48 -45 -46 -39 -34 -14 -11 -18 -24 -29 -31
-53 -57 -55 -41 -52 -47 -47 -73 -64 -81 -70 -84 -91 0 0 -1 -168 -174 -189 -182 -166 -166 -136 -126 -171 -112 -100 -74 -41 -36 -45 -40 -54 -71 -86 -76 -65 -36 -24 -25 -25 -20 -16
-54 -47 -44 -46 -40 -61 -58 -62 -56 -57 -56 -82 -52 -24 -6 0 -23 -170 -174 -162 -177 -207 -154 -179 -186 -137 -148 -139 -80 -51 -55 -44 -56 -64 -66 -88 -68 -64 -41 -25 -19 -20 -22
-55 -46 -44 -64 -46 -52 -51 -76 -76 -60 -47 -64 -93 -71 -35 -42 -36 -97 -103 -143 -142 0 0 0 -15 -213 -160 -130 -102 -64 -68 -63 -59 -50 -34 -100 -77 -56 -44 -35 -28 -29 -26
-49 -29 -34 -45 -52 -62 -45 -53 -63 -56 -66 -47 -57 -96 -117 -63 -0 0 -85 -86 -131 -128 0 0 0 -200 0 0 -170 -98 -49 -60 -68 -59 -48 -64 -88 -59 -46 -38 -42 -56 -43
-37 -24 -32 -48 -46 -48 -55 -52 -51 -52 -69 -60 -85 -90 -37 0 -99 -59 -2 -39 -71 -93 0 0 0 -204 0 0 0 -137 -90 -36 -62 -74 -62 -40 -70 -63 -42 -43 -42 -28 -23
-49 -31 -30 -38 -45 -53 -50 -50 -38 -46 -50 -56 -65 -72 -63 0 -27 -73 -101 -82 -54 -59 -67 -36 0 0 -209 -67 0 0 -179 -144 -60 -79 -59 -50 -43 -47 -28 -19 -14 -15 -16
-53 -56 -44 -37 -38 -44 -44 -48 -42 -41 -44 -45 -69 -62 -81 -72 -114 -147 -122 -72 -48 -88 -88 -59 -86 -138 -189 -190 0 -168 -153 -166 -72 -89 -81 -59 -34 -45 -45 -17 -4 -4 0
-84 -95 -101 -57 -56 -42 -42 -51 -50 -51 -52 -46 -50 -35 -41 -63 -77 -89 -43 -28 -71 -109 -160 -96 -55 -69 -93 -123 -168 -144 -113 -127 -153 -115 -82 -94 -60 -37 -39 -33 -11 -8 -25
-119 -120 -141 -81 -56 -57 -47 -42 -47 -40 -46 -41 -39 -36 -47 -52 -85 -68 -50 -34 -41 -61 -85 -107 -47 -66 -62 -90 -111 -116 -136 -176 -117 -107 -125 -125 -89 -56 -55 -35 -19 -21 -70
-119 -171 -116 -84 -68 -68 -59 -44 -44 -45 -42 -43 -42 -38 -46 -54 -53 -63 -50 -45 -61 -54 -79 -96 -96 -103 -74 -55 -74 -98 -132 -0 -48 -129 -150 -161 -102 -73 -55 -42 -31 -48 -86
-156 -150 -43 -139 -136 -85 -50 -49 -49 -43 -40 -41 -38 -44 -51 -47 -46 -57 -80 -70 -58 -57 -59 -98 -133 -97 -85 -78 -72 -90 -94 -97 -136 -133 -103 -142 -132 -85 -52 -46 -50 -71 0
-108 -125 -65 -66 -70 -64 -59 -47 -42 -43 -34 -37 -36 -36 -44 -45 -63 -60 -65 -57 -56 -58 -32 -80 -110 -108 -87 -77 -66 -57 -61 -59 -64 -75 -76 -85 -114 -99 -65 -51 -55 -35 0
-135 -122 -84 -54 -62 -48 -45 -45 -43 -31 -30 -25 -25 -27 -27 -32 -42 -43 -44 -46 -47 -45 -51 -52 -77 -85 -107 -99 -81 -78 -78 -70 -75 -85 -89 -119 -133 -111 -92 -76 -86 0 0
-115 -97 -115 -78 -54 -46 -45 -44 -42 -38 -26 -28 -27 -30 -29 -30 -38 -40 -41 -38 -44 -33 -31 -29 -55 -65 -69 -88 -93 -76 -54 -56 -60 -129 -157 -174 -158 -147 -128 -125 -145 -68 0
-186 -129 -102 -84 -87 -75 -76 -70 -62 -64 -67 -51 -44 -36 -30 -27 -29 -27 -32 -32 -16 -14 -21 -33 -40 -43 -63 -75 -58 -50 -37 -49 -82 -151 -174 -192 -83 -165 -159 -37 0 0 0
-232 -229 -208 -177 -141 -114 -94 -57 -40 -34 -30 -24 -38 -34 -65 -66 -65 -75 -71 -43 -21 -9 -17 -27 -27 -28 -37 -47 -54 -28 -17 -9 -4 -130 0 0 0 -67 0 0 0 0 0
-247 -236 -214 -205 -154 -156 -244 -261 -196 -185 -148 -91 -77 -122 -145 -44 -210 -187 -195 0 -188 -160 -87 -27 -33 -30 -24 -50 -43 -30 -16 -8 -6 -10 0 0 0 0 0 0 0 0 0
-222 -203 -196 -154 -171 -262 -249 -283 -18 0 0 -305 0 0 0 0 0 0 0 0 0 0 0 0 0 0 0 0 -5 -7 -12 -19 -22 -27 -3 0 0 0 0 0 0 0 0
-186 -162 -150 -130 -152 -246 -364 -229 -37 0 0 0 0 0 0 0 0 0 0 0 0 0 0 0 0 0 0 0 0 0 0 0 -1 -6 -1 0 0 0 0 0 0 0 0
-152 -132 -104 -101 -121 -156 -283 -264 0 0 0 0 0 0 0 0 0 0 0 0 0 0 0 0 0 0 0 0 0 0 0 0 0 -1 -6 -2 0 0 0 0 0 0 0
Wind_Speed
21 20 21 21 20 17 15 14 15 14 11 11 12 12 12 13 12 12 12 12 13 14 16 17 16 16 17 17 17 17 17 18 19 20 20 20 21 22 22 23 23 23 22
21 20 21 21 20 17 15 14 15 14 13 10 12 12 12 13 13 12 14 13 13 13 15 17 16 16 16 16 16 16 16 16 17 18 19 20 21 21 21 21 21 21 22
19 19 18 21 19 16 15 15 15 15 13 11 11 12 10 13 13 13 14 15 13 13 15 15 17 17 17 16 16 16 16 16 17 18 19 20 20 21 21 21 20 21 20
17 16 14 16 16 14 13 16 16 15 13 11 10 11 11 13 14 13 14 14 14 14 16 15 15 16 17 17 16 16 16 16 17 17 18 19 19 20 20 20 20 20 19
16 15 14 14 12 11 13 14 15 14 13 11 12 12 13 12 14 15 15 15 15 15 16 16 16 15 16 17 17 16 16 16 17 18 18 19 19 19 19 19 20 20 20
20 19 18 14 13 13 15 13 16 14 13 13 13 14 14 13 13 15 14 15 14 15 14 15 15 15 16 16 17 17 17 17 17 17 18 18 18 18 19 19 19 20 20
22 21 18 15 13 15 14 14 17 17 18 15 16 14 13 14 14 14 14 14 15 14 14 13 13 15 16 16 17 17 18 17 17 18 18 18 18 18 18 18 18 19 20
23 24 21 18 16 14 13 14 16 16 16 17 15 16 13 15 16 15 15 16 15 13 14 15 13 13 14 15 17 17 18 18 17 17 17 17 17 17 17 17 18 18 19
22 22 20 17 16 14 15 16 14 13 14 15 17 14 14 14 13 14 14 12 11 13 11 11 12 13 11 17 16 16 16 16 16 16 16 16 16 16 16 16 17 17 17
22 21 15 12 16 16 15 13 13 13 13 16 16 17 15 12 13 12 12 12 10 11 11 11 10 12 12 13 15 15 14 14 14 14 13 14 14 14 14 14 14 15 15
18 16 15 12 13 12 12 12 13 13 12 15 13 16 17 16 17 14 15 21 21 8 8 10 11 12 11 12 12 10 10 13 12 12 12 11 11 10 11 12 12 11 12
15 16 16 13 14 13 11 12 14 14 14 14 14 15 15 16 19 18 17 22 23 23 23 15 9 8 9 10 11 10 9 10 11 8 9 11 10 9 10 10 9 8 7
17 19 14 15 17 15 14 12 12 16 15 16 15 17 15 15 14 15 18 21 23 22 21 22 20 11 7 8 7 9 8 8 8 8 8 9 9 8 7 7 8 8 7
4 7 11 15 19 16 12 7 10 14 15 14 17 14 12 13 14 14 16 17 19 20 21 21 19 20 19 11 7 7 6 6 6 5 6 5 5 5 4 4 5 6 8
6 14 13 11 14 17 12 5 7 12 13 13 12 13 13 14 13 14 14 14 15 19 24 21 19 21 24 22 15 13 11 16 12 6 4 3 2 2 3 4 5 5 7
16 7 12 8 19 16 15 6 3 7 10 9 11 12 11 14 15 16 14 13 13 15 18 17 24 26 26 25 21 19 19 16 16 12 10 8 5 4 3 6 7 6 7
18 18 22 20 8 10 10 5 3 4 9 10 12 11 10 12 13 16 14 15 13 14 18 23 21 26 28 28 27 21 22 21 16 14 16 14 12 11 9 8 9 10 10
15 5 5 6 8 6 5 2 3 9 8 9 11 12 12 17 14 11 10 9 9 6 10 16 21 20 24 28 28 28 30 27 25 23 21 19 15 14 13 14 13 13 12
20 14 5 5 8 8 7 7 8 9 10 13 19 20 12 20 20 13 7 7 6 7 7 10 17 21 23 24 27 27 29 28 26 25 24 20 17 16 15 18 18 17 16
15 10 6 7 7 6 7 10 13 14 16 18 17 16 15 10 10 9 8 8 15 13 14 15 15 18 22 27 26 29 30 27 27 24 21 18 14 14 12 11 13 16 14
14 13 8 7 8 7 13 17 18 17 15 19 23 20 20 21 12 10 12 19 16 15 15 13 14 20 20 23 24 26 27 27 27 23 22 19 15 13 11 9 10 11 12
10 8 9 9 7 25 30 29 30 32 33 34 32 27 29 30 31 29 27 21 18 16 15 16 17 18 20 20 22 23 25 28 29 20 19 18 15 13 12 9 10 11 10
3 4 4 6 17 21 19 20 25 29 34 36 35 29 27 26 28 29 29 29 28 24 22 24 21 21 22 22 21 21 20 19 21 22 17 19 15 16 18 15 9 11 10
5 4 5 11 12 13 14 15 22 28 30 34 33 31 30 29 27 28 34 34 32 32 31 26 22 22 25 26 23 23 23 24 22 19 12 16 16 17 17 16 13 11 9
7 8 15 14 12 12 12 19 24 23 32 27 33 29 27 31 31 33 34 36 37 36 30 28 28 27 27 26 24 22 20 20 20 20 14 13 14 13 15 17 13 8 7
10 15 16 13 12 14 14 22 21 17 17 12 28 31 32 32 31 33 34 36 40 37 31 29 27 26 24 25 23 21 20 18 18 17 14 12 11 10 14 16 13 8 7
Wind_Direction
207 205 183 178 168 156 158 159 141 150 194 193 197 205 199 196 183 187 177 185 178 174 174 173 170 163 165 171 174 173 173 178 185 191 190 194 191 186 180 185 189 199 202
224 229 210 183 170 170 159 149 135 139 191 176 172 153 167 178 160 161 189 183 182 181 174 170 176 169 174 176 175 173 169 168 175 181 186 186 186 190 183 182 191 198 204
242 237 232 196 174 161 149 174 143 151 160 168 185 180 161 171 162 153 167 176 182 177 180 176 183 175 176 176 173 173 173 164 165 175 178 180 185 188 187 188 188 192 191
261 259 268 255 261 300 19 90 103 140 149 168 175 204 159 154 165 155 164 155 154 167 180 179 179 177 177 176 173 169 170 163 161 162 167 171 177 184 186 184 180 177 173
266 270 282 277 299 332 349 348 141 114 157 195 169 186 179 155 158 144 138 150 160 170 170 171 166 167 168 172 175 170 161 158 158 156 162 168 170 174 175 173 172 177 180
256 260 263 292 303 318 306 348 161 135 85 213 174 170 197 177 165 150 135 151 145 154 159 160 172 169 162 158 166 172 164 152 148 152 149 158 166 171 170 167 170 178 180
253 252 267 280 298 301 309 333 293 288 316 268 68 182 168 175 170 142 140 129 133 130 144 145 147 168 169 168 162 163 161 153 150 151 153 151 154 163 170 172 174 182 195
248 243 257 269 285 309 311 321 321 321 339 328 87 103 137 118 120 136 116 125 127 130 122 150 128 147 153 164 168 154 158 154 150 152 153 155 153 154 161 172 182 187 198
251 252 258 272 282 301 296 308 335 342 337 346 348 31 78 100 119 125 127 132 169 135 152 145 134 167 123 175 162 160 152 148 147 146 148 147 152 153 158 166 177 182 186
252 256 269 285 283 290 296 318 332 344 341 328 338 326 350 74 40 66 122 84 140 159 171 165 132 154 151 133 160 168 155 145 142 140 139 139 137 143 153 157 164 176 179
257 267 272 286 294 309 312 319 320 331 354 333 355 340 332 336 340 7 356 306 317 60 160 174 167 157 115 83 101 90 92 148 142 135 136 134 130 124 135 143 149 152 165
264 268 275 286 290 299 315 317 309 317 330 338 345 342 335 330 318 333 337 315 314 312 313 12 75 134 122 110 55 67 120 134 149 125 127 144 130 130 132 136 133 109 95
267 267 279 283 283 293 303 314 316 309 319 324 330 326 334 340 345 339 330 321 311 313 325 323 341 27 67 116 66 37 64 123 134 141 134 139 134 126 114 108 113 78 78
231 281 275 280 280 288 305 328 321 313 316 321 320 336 342 345 344 348 339 335 329 325 327 331 335 332 331 9 20 24 35 81 69 112 135 121 115 105 81 69 62 53 41
240 278 279 284 288 290 302 321 325 318 317 323 333 335 336 339 344 342 343 344 341 330 313 325 331 324 315 322 333 339 332 324 337 0 45 70 61 79 36 21 11 16 11
182 250 280 280 284 294 297 300 309 330 330 331 328 329 332 331 334 333 337 341 338 335 332 332 317 310 308 313 319 322 317 324 315 330 337 339 341 343 345 341 341 348 353
180 182 190 195 195 225 301 295 263 315 323 328 323 324 327 331 329 326 331 331 334 333 328 322 326 313 306 306 307 313 314 313 313 316 323 320 318 318 317 321 324 326 330
176 192 268 279 297 298 305 252 271 313 311 312 318 319 319 320 323 329 331 331 333 337 334 331 331 334 319 307 306 303 299 303 304 305 309 312 307 307 307 308 311 315 319
187 187 214 274 298 302 303 300 304 304 308 310 308 307 306 310 312 317 309 306 242 323 317 324 329 330 327 325 314 310 306 304 303 305 303 307 305 305 306 302 303 306 309
186 194 226 222 282 282 287 303 308 310 310 309 309 308 307 294 296 289 272 291 317 318 320 320 321 325 325 321 318 311 306 310 307 307 308 306 303 305 306 307 302 303 308
190 194 208 276 286 269 300 303 305 306 305 306 305 307 307 306 297 253 300 311 314 313 314 310 312 318 319 320 317 317 312 312 310 310 307 306 305 305 303 305 314 307 308
189 200 209 217 254 293 290 294 296 294 295 293 295 301 299 299 300 301 302 306 306 304 301 306 307 306 309 313 316 313 311 309 307 313 310 307 308 305 315 314 316 317 319
212 223 252 290 307 309 316 316 311 307 301 297 294 298 301 302 303 303 303 304 305 308 308 309 304 304 307 310 311 309 308 310 310 310 312 309 308 305 308 313 317 326 315
212 230 280 308 313 317 319 321 320 317 311 299 294 293 295 300 305 308 298 300 303 304 306 307 300 300 305 307 306 306 305 306 308 309 312 307 312 309 314 318 323 326 333
282 287 305 305 302 299 305 308 313 329 310 311 281 289 299 299 301 302 302 303 303 304 309 311 310 307 304 304 303 302 294 294 295 300 301 305 312 316 321 324 332 346 6
291 305 306 305 299 303 304 312 319 329 340 343 279 288 295 300 304 303 305 305 300 308 313 313 311 308 306 304 302 298 294 285 288 289 290 290 304 315 319 322 329 338 356